Regional Weather Roundup
Issued by NWS

Home | Current Version | Previous Version | Text Only | Print | Product List | Glossary On
Versions: 1 2 3 4 5 6 7 8 9 10 11 12 13 14 15 16 17 18 19 20 21 22 23 24 25 26 27 28
000
ASUS45 KPSR 110410
RWRAZ

ARIZONA HOURLY REGIONAL WEATHER ROUNDUP
NATIONAL WEATHER SERVICE PHOENIX AZ
900 PM MST SUN DEC 10 2017

NOTE: FAIR INDICATES FEW OR NO CLOUDS BELOW 12,000 FEET WITH NO
SIGNIFICANT WEATHER AND/OR OBSTRUCTIONS TO VISIBILITY.

AZZ001>003-036-110500-
NORTHWEST ARIZONA

CITY           SKY/WX    TMP DP  RH WIND       PRES   REMARKS
BULLHEAD CITY  MOCLDY    66   5   9 N28G36    30.21S
KINGMAN        MOCLDY    38   2  22 E8        30.34R WCI  32
$$

AZZ004>008-015-016-018-110500-
NORTH CENTRAL ARIZONA

CITY           SKY/WX    TMP DP  RH WIND       PRES   REMARKS
GRAND CANYON   PTCLDY    17  -7  34 NE5       30.48R WCI  10
WILLIAMS       MOCLDY    34 -20   9 S13       30.42S WCI  25
PRESCOTT       MOCLDY    37   4  25 CALM      30.38R
FLAGSTAFF      MOCLDY    34 -13  13 E9        30.47S WCI  27
PAYSON         MOCLDY    50 -15   6 NE9       30.39R
PAGE           PTCLDY    36  15  42 CALM      30.49R
$$

AZZ009>014-017-110500-
NORTHEAST ARIZONA

CITY           SKY/WX    TMP DP  RH WIND       PRES   REMARKS
WINSLOW        MOCLDY    28  -2  27 W3        30.47S
SAINT JOHNS    MOCLDY    28   4  35 CALM      30.45S
WINDOW ROCK    PTCLDY    20  -5  33 CALM      30.49S
SHOW LOW       MOCLDY    30   3  31 E5        30.49R WCI  25
$$

AZZ540-542>544-546-548-110500-
GREATER PHOENIX AREA

CITY           SKY/WX    TMP DP  RH WIND       PRES   REMARKS
PHOENIX        CLOUDY    65  11  12 E6        30.18R
BUCKEYE        CLOUDY    63  46  55 NE7       30.19R
LUKE AFB       MOCLDY    55  26  33 N8        30.18R
DEER VALLEY    MOCLDY    66   6   9 E9        30.20R
SCOTTSDALE     MOCLDY    67  13  12 E8        30.22R
MESA-GATEWAY   MOCLDY    61   5  11 E6        30.21R
CHANDLER       MOCLDY    55  21  26 E8        30.19R
$$

AZZ539-553-110500-
SOUTHWEST MARICOPA COUNTY AND PINAL COUNTY

CITY           SKY/WX    TMP DP  RH WIND       PRES   REMARKS
CASA GRANDE    NOT AVBL
$$

AZZ503-504-507>509-110500-
SOUTHEAST ARIZONA

CITY           SKY/WX    TMP DP  RH WIND       PRES   REMARKS
TUCSON         CLOUDY    63  15  15 SE10      30.27R
DAVIS-MONTHAN  CLOUDY    58  15  18 SE7       30.25R
NOGALES        CLOUDY    60  15  17 SE8       30.27S
SIERRA VISTA   CLOUDY    51  14  23 SE8       30.35R
DOUGLAS        CLOUDY    54  13  19 E13       30.34R
SAFFORD        MOCLDY    52  11  19 SE7       30.37R
$$

AZZ532-110500-
SOUTHWEST ARIZONA

CITY           SKY/WX    TMP DP  RH WIND       PRES   REMARKS
YUMA           CLOUDY    60  16  18 CALM      30.15S
$$

CAZ041-043-047-048-061-525>527-560>570-110500-
SOUTHERN CALIFORNIA

CITY           SKY/WX    TMP DP  RH WIND       PRES   REMARKS
DOWNTOWN L.A.  CLOUDY    65  29  25 CALM      30.12R
L.A. AIRPORT   CLOUDY    72  16  12 CALM      30.13R
SAN DIEGO      PTCLDY    64  26  23 N5        30.14S
BURBANK        CLOUDY    64  27  24 CALM      30.15R
ONTARIO        CLOUDY    74   1   6 E10       30.16R
RIVERSIDE      CLOUDY    70   9   9 E5        30.18R
PALM SPRINGS   MOCLDY    69  12  11 W6        30.23R
EL CENTRO NAS  MOCLDY    56  17  21 W7        30.19R
IMPERIAL       CLOUDY    59  21  23 W7        30.17R
BLYTHE         MOCLDY    63   6  10 CALM      30.20R
NEEDLES        MOCLDY    65   2   8 NW10      30.24R
$$

NVZ020-UTZ003-110500-
SOUTHERN NEVADA-UTAH

CITY           SKY/WX    TMP DP  RH WIND       PRES   REMARKS
LAS VEGAS      MOCLDY    51   5  15 CALM      30.33R
SALT LAKE CITY PTCLDY    27  24  89 CALM      30.59F FOG
$$

NMZ009-TXZ055-110500-
NEW MEXICO-WEST TEXAS

CITY           SKY/WX    TMP DP  RH WIND       PRES   REMARKS
ALBUQUERQUE    CLOUDY    39   3  22 CALM      30.46R
EL PASO        MOCLDY    45  29  53 CALM      30.43R
$$


........................KEY........................
SKY/WX - SKY CONDITION/WEATHER
TMP    - TEMPERATURE IN FAHRENHEIT
DP     - DEW POINT IN FAHRENHEIT
RH     - RELATIVE HUMIDITY IN PERCENT
WIND   - DIRECTION AND SPEED IN MILES PER HOUR (MPH)
VRB    - VARIABLE WIND DIRECTION
PRES   - MEAN SEA LEVEL PRESSURE IN INCHES OF MERCURY
         F - FALLING PRESSURE   R - RISING PRESSURE
         S - STEADY PRESSURE
VSB    - VISIBILITY IN MILES
HX     - HEAT INDEX IN FAHRENHEIT
WCI    - WIND CHILL INDEX IN FAHRENHEIT
TC     - TEMPERATURE IN CELSIUS WHICH IS ALSO KNOWN AS
         TEMPERATURE IN CENTIGRADE
AFB    - AIR FORCE BASE
         LUKE AFB IS LUKE AIR FORCE BASE
         DAVIS-MONTHAN IS DAVIS-MONTHAN AIR FORCE BASE
NAS    - NAVAL AIR STATION
         EL CENTRO NAS IS EL CENTRO NAVAL AIR STATION
N/A    - NOT AVAILABLE





USA.gov is the U.S. government's official web portal to all federal, state and local government web resources and services.